| time (UTC) | temp C | wind direction | speed KPH | gust KPH | rain 1hr cm | rain 24hr cm | rain mn cm | humidity % | barometer mb |
| 20260503030043 | 6 | 165 | 3.2 | 6.4 | 0.00 | 0.00 | 0.00 | 74 | 1006.5 |
| 20260503024544 | 7 | 165 | 1.6 | 6.4 | 0.00 | 0.00 | 0.00 | 67 | 1006.7 |
| 20260503023037 | 7 | 0 | 0.0 | 1.6 | 0.00 | 0.00 | 0.00 | 62 | 1006.8 |
| 20260503021537 | 6 | 0 | 0.0 | 3.2 | 0.00 | 0.00 | 0.00 | 65 | 1007.0 |
| 20260503020045 | 6 | 319 | 1.6 | 3.2 | 0.00 | 0.00 | 0.00 | 65 | 1007.0 |
| 20260503014544 | 6 | 319 | 1.6 | 4.8 | 0.00 | 0.00 | 0.00 | 67 | 1007.1 |
| 20260503013050 | 6 | 319 | 3.2 | 4.8 | 0.00 | 0.00 | 0.00 | 68 | 1007.2 |
| 20260503011547 | 6 | 0 | 0.0 | 4.8 | 0.00 | 0.00 | 0.00 | 67 | 1007.3 |
| 20260503010115 | 6 | 319 | 3.2 | 6.4 | 0.00 | 0.00 | 0.00 | 65 | 1007.4 |
| 20260503004545 | 6 | 310 | 3.2 | 6.4 | 0.00 | 0.00 | 0.00 | 68 | 1007.6 |
| 20260503003044 | 5 | 341 | 6.4 | 8.0 | 0.00 | 0.00 | 0.00 | 72 | 1007.8 |
| 20260503001543 | 6 | 328 | 0.0 | 4.8 | 0.00 | 0.00 | 0.00 | 71 | 1008.0 |
| 20260503000043 | 5 | 344 | 3.2 | 9.7 | 0.00 | 0.00 | 0.00 | 75 | 1008.2 |
| 20260502234546 | 6 | 309 | 1.6 | 6.4 | 0.00 | 0.00 | 0.00 | 68 | 1008.6 |
| 20260502233047 | 6 | 304 | 3.2 | 6.4 | 0.00 | 0.00 | 0.00 | 69 | 1008.5 |
| 20260502231546 | 7 | 355 | 4.8 | 9.7 | 0.00 | 0.00 | 0.00 | 67 | 1008.5 |
| 20260502230045 | 10 | 321 | 4.8 | 16.1 | 0.00 | 0.00 | 0.00 | 51 | 1008.6 |
| 20260502224544 | 8 | 107 | 3.2 | 12.9 | 0.00 | 0.00 | 0.00 | 48 | 1008.7 |
| 20260502223046 | 10 | 282 | 4.8 | 11.3 | 0.00 | 0.00 | 0.00 | 49 | 1009.1 |
| 20260502221545 | 11 | 90 | 9.7 | 17.7 | 0.00 | 0.00 | 0.00 | 38 | 1009.2 |
| 20260502220049 | 11 | 128 | 9.7 | 19.3 | 0.00 | 0.00 | 0.00 | 39 | 1009.4 |
| 20260502214559 | 11 | 117 | 11.3 | 17.7 | 0.00 | 0.00 | 0.00 | 38 | 1009.4 |
| 20260502213044 | 10 | 119 | 12.9 | 20.9 | 0.00 | 0.00 | 0.00 | 39 | 1009.6 |
| 20260502211547 | 11 | 109 | 12.9 | 19.3 | 0.00 | 0.00 | 0.00 | 38 | 1009.9 |
| 20260502210048 | 11 | 90 | 14.5 | 20.9 | 0.00 | 0.00 | 0.00 | 37 | 1010.1 |
| 20260502204541 | 10 | 119 | 16.1 | 25.7 | 0.00 | 0.00 | 0.00 | 38 | 1010.3 |
| 20260502203059 | 10 | 117 | 14.5 | 22.5 | 0.00 | 0.00 | 0.00 | 39 | 1010.5 |
| 20260502201548 | 11 | 122 | 19.3 | 25.7 | 0.00 | 0.00 | 0.00 | 37 | 1010.8 |
| 20260502200045 | 10 | 101 | 14.5 | 24.1 | 0.00 | 0.00 | 0.00 | 41 | 1011.1 |
| 20260502194543 | 11 | 131 | 16.1 | 22.5 | 0.00 | 0.00 | 0.00 | 38 | 1011.4 |
| 20260502193046 | 11 | 128 | 14.5 | 20.9 | 0.00 | 0.00 | 0.00 | 42 | 1011.5 |
| 20260502191541 | 11 | 115 | 19.3 | 24.1 | 0.00 | 0.00 | 0.00 | 40 | 1011.7 |
| 20260502190038 | 10 | 98 | 8.0 | 19.3 | 0.00 | 0.00 | 0.00 | 42 | 1011.9 |
| 20260502184545 | 10 | 161 | 3.2 | 8.0 | 0.00 | 0.00 | 0.00 | 43 | 1012.0 |
| 20260502183044 | 8 | 300 | 3.2 | 14.5 | 0.00 | 0.00 | 0.00 | 55 | 1012.4 |
| 20260502181543 | 11 | 96 | 9.7 | 17.7 | 0.00 | 0.00 | 0.00 | 40 | 1012.8 |
| 20260502163039 | 5 | 319 | 0.0 | 12.9 | 0.00 | 0.00 | 0.00 | 70 | 1014.1 |
| 20260502161539 | 4 | 329 | 6.4 | 14.5 | 0.00 | 0.00 | 0.00 | 79 | 1014.3 |
| 20260502151547 | 5 | 321 | 3.2 | 11.3 | 0.00 | 0.00 | 0.00 | 69 | 1014.9 |
| 20260502123044 | 1 | 0 | 0.0 | 0.0 | 0.00 | 0.00 | 0.00 | 86 | 1015.9 |
| 20260502121541 | 1 | 0 | 0.0 | 0.0 | 0.00 | 0.00 | 0.00 | 85 | 1016.0 |
| 20260502114608 | 1 | 0 | 0.0 | 0.0 | 0.00 | 0.00 | 0.00 | 89 | 1015.9 |
| 20260502113045 | 0 | 0 | 0.0 | 0.0 | 0.00 | 0.00 | 0.00 | 91 | 1016.1 |
| 20260502111545 | 0 | 0 | 0.0 | 0.0 | 0.00 | 0.00 | 0.00 | 92 | 1016.0 |
| 20260502110046 | 0 | 0 | 0.0 | 0.0 | 0.00 | 0.00 | 0.00 | 91 | 1016.1 |
| 20260502104544 | 0 | 0 | 0.0 | 1.6 | 0.00 | 0.00 | 0.00 | 91 | 1016.0 |
| 20260502103039 | 0 | 0 | 0.0 | 0.0 | 0.00 | 0.00 | 0.00 | 90 | 1016.0 |
| 20260502101601 | -1 | 0 | 0.0 | 0.0 | 0.00 | 0.00 | 0.00 | 88 | 1016.0 |
| 20260502070048 | 1 | 148 | 3.2 | 6.4 | 0.00 | 0.00 | 0.00 | 87 | 1016.5 |
| 20260502064613 | 0 | 207 | 3.2 | 6.4 | 0.00 | 0.00 | 0.00 | 89 | 1016.5 |
| 20260502063052 | 0 | 150 | 1.6 | 4.8 | 0.00 | 0.00 | 0.00 | 88 | 1016.4 |
| 20260502061548 | 0 | 150 | 1.6 | 4.8 | 0.00 | 0.00 | 0.00 | 88 | 1016.6 |
| 20260502060049 | 1 | 263 | 0.0 | 3.2 | 0.00 | 0.00 | 0.00 | 87 | 1016.7 |
| 20260502054546 | 1 | 0 | 0.0 | 0.0 | 0.00 | 0.00 | 0.00 | 87 | 1016.7 |
| 20260502053055 | 1 | 263 | 1.6 | 4.8 | 0.00 | 0.00 | 0.00 | 87 | 1016.7 |
| 20260502051545 | 1 | 263 | 3.2 | 4.8 | 0.00 | 0.00 | 0.00 | 85 | 1016.9 |
| 20260502050045 | 1 | 291 | 3.2 | 4.8 | 0.00 | 0.00 | 0.00 | 81 | 1017.0 |
| 20260502044539 | 1 | 197 | 1.6 | 4.8 | 0.00 | 0.00 | 0.00 | 84 | 1017.0 |
| 20260502043117 | 1 | 197 | 1.6 | 6.4 | 0.00 | 0.00 | 0.00 | 86 | 1017.0 |
| 20260502041543 | 1 | 59 | 0.0 | 3.2 | 0.00 | 0.00 | 0.00 | 85 | 1016.9 |
| 20260502040045 | 1 | 59 | 1.6 | 4.8 | 0.00 | 0.00 | 0.00 | 83 | 1016.9 |
| 20260502034544 | 1 | 59 | 3.2 | 4.8 | 0.00 | 0.00 | 0.00 | 81 | 1017.0 |
| 20260502033044 | 1 | 59 | 3.2 | 4.8 | 0.00 | 0.00 | 0.00 | 79 | 1017.1 |
| 20260502031541 | 1 | 0 | 0.0 | 0.0 | 0.00 | 0.00 | 0.00 | 78 | 1017.2 |